Location: Gu�tanj
(46.5431°N, 14.9692°E)
Time: 17:57:40
(UTC+00:00)

Cosmos 2366 rocket - Pass Details

Date: 03 March 2021
Orbit: 954 x 998 km, 82.9° (Epoch: 14 April)

Event Time Altitude Azimuth Distance (km) Brightness Sun altitude
Rises 18:20:46 0° 169° (S) 3,679 6.8 -16.5°
Reaches altitude 10° 18:23:19 10° 164° (SSE) 2,741 6.1 -17.0°
Maximum altitude 18:29:22 51° 91° (E) 1,235 4.1 -18.0°
Drops below altitude 10° 18:35:29 10° 18° (NNE) 2,776 6.3 -19.0°
Sets 18:38:06 0° 13° (NNE) 3,730 7.0 -19.5°
